Private Wetterstation Sandau
Wetterdaten: Samstag, 27.10.2012
Datum Zeit Temp. A. Feuchte A. Luftdruck Regen Wind Richtung Richtung Taupunkt Windchill
27.10.2012 00:01 1,6 C 72 % 1006,6 hPa 0,0 l/m 1,8 km/h (1 Bft) O 90 -2,9 C 1,6 C
27.10.2012 00:06 1,6 C 72 % 1006,6 hPa 0,0 l/m 0,0 km/h (0 Bft) O-SO 112 -2,9 C 1,6 C
27.10.2012 00:11 1,6 C 73 % 1006,7 hPa 0,0 l/m 2,5 km/h (1 Bft) O-SO 112 -2,7 C 1,6 C
27.10.2012 00:16 1,6 C 73 % 1006,5 hPa 0,0 l/m 4,0 km/h (1 Bft) O-SO 112 -2,7 C 1,6 C
27.10.2012 00:21 1,6 C 73 % 1006,3 hPa 0,0 l/m 2,9 km/h (1 Bft) O-SO 112 -2,7 C 1,6 C
27.10.2012 00:26 1,6 C 73 % 1006,3 hPa 0,0 l/m 4,0 km/h (1 Bft) O-NO 67 -2,7 C 1,6 C
27.10.2012 00:31 1,5 C 73 % 1006,3 hPa 0,0 l/m 1,4 km/h (1 Bft) NO 45 -2,8 C 1,5 C
27.10.2012 00:36 1,5 C 73 % 1006,2 hPa 0,0 l/m 1,4 km/h (1 Bft) O-NO 67 -2,8 C 1,5 C
27.10.2012 00:41 1,4 C 73 % 1006,0 hPa 0,0 l/m 1,8 km/h (1 Bft) O-NO 67 -2,9 C 1,4 C
27.10.2012 00:46 1,4 C 73 % 1006,0 hPa 0,0 l/m 0,0 km/h (0 Bft) O-NO 67 -2,9 C 1,4 C
27.10.2012 00:51 1,3 C 73 % 1006,1 hPa 0,0 l/m 4,0 km/h (1 Bft) O-NO 67 -3,0 C 1,3 C
27.10.2012 00:56 1,3 C 73 % 1006,1 hPa 0,0 l/m 0,0 km/h (0 Bft) NO 45 -3,0 C 1,3 C
27.10.2012 01:01 1,3 C 73 % 1005,9 hPa 0,0 l/m 0,0 km/h (0 Bft) O-NO 67 -3,0 C 1,3 C
27.10.2012 01:06 1,3 C 73 % 1005,8 hPa 0,0 l/m 0,0 km/h (0 Bft) O-NO 67 -3,0 C 1,3 C
27.10.2012 01:11 1,3 C 73 % 1005,8 hPa 0,0 l/m 4,7 km/h (1 Bft) NO 45 -3,0 C 0,0 C
27.10.2012 01:16 1,3 C 73 % 1005,8 hPa 0,0 l/m 3,6 km/h (1 Bft) O-NO 67 -3,0 C 1,3 C
27.10.2012 01:21 1,3 C 74 % 1005,8 hPa 0,0 l/m 2,5 km/h (1 Bft) O-NO 67 -2,8 C 1,3 C
27.10.2012 01:26 1,3 C 74 % 1005,8 hPa 0,0 l/m 0,0 km/h (0 Bft) NO 45 -2,8 C 1,3 C
27.10.2012 01:31 1,3 C 74 % 1005,7 hPa 0,0 l/m 2,5 km/h (1 Bft) NO 45 -2,8 C 1,3 C
27.10.2012 01:36 1,3 C 74 % 1005,7 hPa 0,0 l/m 0,0 km/h (0 Bft) NO 45 -2,8 C 1,3 C
27.10.2012 01:41 1,3 C 74 % 1005,9 hPa 0,0 l/m 2,2 km/h (1 Bft) NO 45 -2,8 C 1,3 C
27.10.2012 01:46 1,3 C 74 % 1005,8 hPa 0,0 l/m 2,5 km/h (1 Bft) O-NO 67 -2,8 C 1,3 C
27.10.2012 01:51 1,3 C 74 % 1005,8 hPa 0,0 l/m 1,8 km/h (1 Bft) O-NO 67 -2,8 C 1,3 C
27.10.2012 01:56 1,3 C 73 % 1005,5 hPa 0,0 l/m 4,0 km/h (1 Bft) NO 45 -3,0 C 1,3 C
27.10.2012 02:01 1,3 C 73 % 1005,5 hPa 0,0 l/m 2,2 km/h (1 Bft) O-NO 67 -3,0 C 1,3 C
27.10.2012 02:06 1,3 C 73 % 1005,5 hPa 0,0 l/m 4,0 km/h (1 Bft) O-NO 67 -3,0 C 1,3 C
27.10.2012 02:11 1,3 C 73 % 1005,5 hPa 0,0 l/m 4,0 km/h (1 Bft) NO 45 -3,0 C 1,3 C
27.10.2012 02:16 1,3 C 73 % 1005,4 hPa 0,0 l/m 2,2 km/h (1 Bft) NO 45 -3,0 C 1,3 C
27.10.2012 02:21 1,3 C 73 % 1005,4 hPa 0,0 l/m 4,7 km/h (1 Bft) O-NO 67 -3,0 C 0,0 C
27.10.2012 02:26 1,2 C 73 % 1005,2 hPa 0,0 l/m 3,2 km/h (1 Bft) O-NO 67 -3,1 C 1,2 C
27.10.2012 02:31 1,2 C 73 % 1005,1 hPa 0,0 l/m 2,9 km/h (1 Bft) O-NO 67 -3,1 C 1,2 C
27.10.2012 02:36 1,2 C 74 % 1005,1 hPa 0,0 l/m 2,5 km/h (1 Bft) NO 45 -2,9 C 1,2 C
27.10.2012 02:41 1,2 C 74 % 1005,2 hPa 0,0 l/m 4,0 km/h (1 Bft) NO 45 -2,9 C 1,2 C
27.10.2012 02:46 1,2 C 75 % 1005,2 hPa 0,0 l/m 2,2 km/h (1 Bft) NO 45 -2,7 C 1,2 C
27.10.2012 02:51 1,1 C 75 % 1005,2 hPa 0,0 l/m 1,4 km/h (1 Bft) N-NO 22 -2,8 C 1,1 C
27.10.2012 02:56 1,1 C 75 % 1005,1 hPa 0,0 l/m 3,2 km/h (1 Bft) NO 45 -2,8 C 1,1 C
27.10.2012 03:01 1,1 C 75 % 1005,0 hPa 0,0 l/m 2,5 km/h (1 Bft) NO 45 -2,8 C 1,1 C
27.10.2012 03:06 1,1 C 75 % 1004,8 hPa 0,0 l/m 1,8 km/h (1 Bft) O-NO 67 -2,8 C 1,1 C
27.10.2012 03:11 1,1 C 75 % 1004,8 hPa 0,0 l/m 4,3 km/h (1 Bft) O-NO 67 -2,8 C 1,1 C
27.10.2012 03:16 1,1 C 75 % 1004,8 hPa 0,0 l/m 4,0 km/h (1 Bft) NO 45 -2,8 C 1,1 C
27.10.2012 03:21 1,1 C 74 % 1004,7 hPa 0,0 l/m 5,8 km/h (2 Bft) O-NO 67 -3,0 C -0,7 C
27.10.2012 03:26 1,1 C 74 % 1004,7 hPa 0,0 l/m 3,6 km/h (1 Bft) NO 45 -3,0 C 1,1 C
27.10.2012 03:31 1,1 C 74 % 1004,7 hPa 0,0 l/m 4,7 km/h (1 Bft) NO 45 -3,0 C -0,2 C
27.10.2012 03:36 1,1 C 74 % 1004,5 hPa 0,0 l/m 0,0 km/h (0 Bft) O-SO 112 -3,0 C 1,1 C
27.10.2012 03:41 1,1 C 74 % 1004,6 hPa 0,0 l/m 4,3 km/h (1 Bft) NO 45 -3,0 C 1,1 C
27.10.2012 03:46 1,1 C 74 % 1004,6 hPa 0,0 l/m 4,3 km/h (1 Bft) NO 45 -3,0 C 1,1 C
27.10.2012 03:51 1,0 C 74 % 1004,5 hPa 0,0 l/m 2,2 km/h (1 Bft) NO 45 -3,1 C 1,0 C
27.10.2012 03:56 1,0 C 74 % 1004,6 hPa 0,0 l/m 2,9 km/h (1 Bft) O-NO 67 -3,1 C 1,0 C
27.10.2012 04:01 0,9 C 74 % 1004,5 hPa 0,0 l/m 4,7 km/h (1 Bft) O-NO 67 -3,2 C -0,4 C
27.10.2012 04:06 0,9 C 74 % 1004,4 hPa 0,0 l/m 4,0 km/h (1 Bft) O-NO 67 -3,2 C 0,9 C
27.10.2012 04:11 0,9 C 74 % 1004,2 hPa 0,0 l/m 5,0 km/h (1 Bft) NO 45 -3,2 C -0,6 C
27.10.2012 04:16 0,9 C 74 % 1004,2 hPa 0,0 l/m 5,4 km/h (1 Bft) NO 45 -3,2 C -0,7 C
27.10.2012 04:21 0,9 C 74 % 1004,4 hPa 0,0 l/m 7,6 km/h (2 Bft) NO 45 -3,2 C -1,6 C
27.10.2012 04:26 0,9 C 74 % 1004,3 hPa 0,0 l/m 2,5 km/h (1 Bft) NO 45 -3,2 C 0,9 C
27.10.2012 04:31 0,9 C 74 % 1004,3 hPa 0,0 l/m 2,2 km/h (1 Bft) NO 45 -3,2 C 0,9 C
27.10.2012 04:36 0,9 C 74 % 1004,2 hPa 0,0 l/m 6,5 km/h (2 Bft) NO 45 -3,2 C -1,2 C
27.10.2012 04:41 0,9 C 74 % 1004,3 hPa 0,0 l/m 5,8 km/h (2 Bft) NO 45 -3,2 C -0,9 C
27.10.2012 04:46 0,9 C 74 % 1004,1 hPa 0,0 l/m 6,1 km/h (2 Bft) NO 45 -3,2 C -1,0 C
27.10.2012 04:51 0,9 C 74 % 1004,1 hPa 0,0 l/m 5,0 km/h (1 Bft) O-NO 67 -3,2 C -0,6 C
27.10.2012 04:56 0,9 C 73 % 1004,1 hPa 0,0 l/m 2,5 km/h (1 Bft) O-NO 67 -3,4 C 0,9 C
27.10.2012 05:01 0,9 C 74 % 1004,1 hPa 0,0 l/m 3,2 km/h (1 Bft) O-NO 67 -3,2 C 0,9 C
27.10.2012 05:06 0,9 C 74 % 1004,2 hPa 0,0 l/m 3,6 km/h (1 Bft) NO 45 -3,2 C 0,9 C
27.10.2012 05:11 0,9 C 73 % 1004,4 hPa 0,0 l/m 3,6 km/h (1 Bft) O-NO 67 -3,4 C 0,9 C
27.10.2012 05:16 0,9 C 74 % 1004,3 hPa 0,0 l/m 3,6 km/h (1 Bft) O-NO 67 -3,2 C 0,9 C
27.10.2012 05:21 0,9 C 74 % 1004,2 hPa 0,0 l/m 0,0 km/h (0 Bft) O-NO 67 -3,2 C 0,9 C
27.10.2012 05:26 0,9 C 74 % 1004,0 hPa 0,0 l/m 3,2 km/h (1 Bft) NO 45 -3,2 C 0,9 C
27.10.2012 05:31 0,9 C 74 % 1004,0 hPa 0,0 l/m 4,7 km/h (1 Bft) NO 45 -3,2 C -0,4 C
27.10.2012 05:36 0,9 C 74 % 1004,1 hPa 0,0 l/m 7,2 km/h (2 Bft) O-NO 67 -3,2 C -1,4 C
27.10.2012 05:41 0,9 C 74 % 1004,0 hPa 0,0 l/m 1,8 km/h (1 Bft) O-NO 67 -3,2 C 0,9 C
27.10.2012 05:46 0,9 C 75 % 1004,1 hPa 0,0 l/m 3,6 km/h (1 Bft) N-NO 22 -3,0 C 0,9 C
27.10.2012 05:51 0,9 C 75 % 1004,1 hPa 0,0 l/m 3,2 km/h (1 Bft) O-NO 67 -3,0 C 0,9 C
27.10.2012 05:56 0,9 C 75 % 1004,1 hPa 0,0 l/m 3,2 km/h (1 Bft) O-NO 67 -3,0 C 0,9 C
27.10.2012 06:01 0,9 C 75 % 1004,1 hPa 0,0 l/m 4,7 km/h (1 Bft) NO 45 -3,0 C -0,4 C
27.10.2012 06:06 0,9 C 75 % 1004,1 hPa 0,0 l/m 0,0 km/h (0 Bft) NO 45 -3,0 C 0,9 C
27.10.2012 06:11 0,9 C 75 % 1004,1 hPa 0,0 l/m 0,0 km/h (0 Bft) O-NO 67 -3,0 C 0,9 C
27.10.2012 06:16 0,9 C 75 % 1004,2 hPa 0,0 l/m 5,4 km/h (1 Bft) O 90 -3,0 C -0,7 C
27.10.2012 06:21 0,9 C 75 % 1004,1 hPa 0,0 l/m 4,7 km/h (1 Bft) NO 45 -3,0 C -0,4 C
27.10.2012 06:26 0,9 C 75 % 1004,1 hPa 0,0 l/m 5,4 km/h (1 Bft) O-NO 67 -3,0 C -0,7 C
27.10.2012 06:31 0,9 C 75 % 1004,1 hPa 0,0 l/m 5,4 km/h (1 Bft) O-NO 67 -3,0 C -0,7 C
27.10.2012 06:36 0,9 C 74 % 1003,8 hPa 0,0 l/m 3,2 km/h (1 Bft) NO 45 -3,2 C 0,9 C
27.10.2012 06:41 1,0 C 74 % 1003,9 hPa 0,0 l/m 2,2 km/h (1 Bft) O-NO 67 -3,1 C 1,0 C
27.10.2012 06:46 1,0 C 74 % 1003,9 hPa 0,0 l/m 1,8 km/h (1 Bft) NO 45 -3,1 C 1,0 C
27.10.2012 06:51 1,0 C 74 % 1004,1 hPa 0,0 l/m 5,0 km/h (1 Bft) NO 45 -3,1 C -0,5 C
27.10.2012 06:56 0,9 C 74 % 1004,1 hPa 0,0 l/m 6,8 km/h (2 Bft) NO 45 -3,2 C -1,3 C
27.10.2012 07:01 1,0 C 74 % 1004,0 hPa 0,0 l/m 10,8 km/h (2 Bft) NO 45 -3,1 C -2,3 C
27.10.2012 07:06 1,0 C 74 % 1004,1 hPa 0,0 l/m 4,7 km/h (1 Bft) O-NO 67 -3,1 C -0,3 C
27.10.2012 07:11 0,9 C 74 % 1004,2 hPa 0,0 l/m 3,2 km/h (1 Bft) NO 45 -3,2 C 0,9 C
27.10.2012 07:16 0,9 C 74 % 1004,1 hPa 0,0 l/m 0,0 km/h (0 Bft) NO 45 -3,2 C 0,9 C
27.10.2012 07:21 0,9 C 74 % 1004,1 hPa 0,0 l/m 3,6 km/h (1 Bft) NO 45 -3,2 C 0,9 C
27.10.2012 07:26 0,9 C 74 % 1004,1 hPa 0,0 l/m 10,8 km/h (2 Bft) O-NO 67 -3,2 C -2,4 C
27.10.2012 07:31 0,9 C 74 % 1004,1 hPa 0,0 l/m 5,0 km/h (1 Bft) NO 45 -3,2 C -0,6 C
27.10.2012 07:36 0,9 C 74 % 1004,2 hPa 0,0 l/m 3,2 km/h (1 Bft) NO 45 -3,2 C 0,9 C
27.10.2012 07:41 0,9 C 74 % 1004,3 hPa 0,0 l/m 3,6 km/h (1 Bft) N 360 -3,2 C 0,9 C
27.10.2012 07:46 0,9 C 74 % 1004,2 hPa 0,0 l/m 6,5 km/h (2 Bft) O-NO 67 -3,2 C -1,2 C
27.10.2012 07:51 0,9 C 74 % 1004,1 hPa 0,0 l/m 5,0 km/h (1 Bft) O-NO 67 -3,2 C -0,6 C
27.10.2012 07:56 0,9 C 74 % 1004,2 hPa 0,0 l/m 5,4 km/h (1 Bft) O-NO 67 -3,2 C -0,7 C
27.10.2012 08:01 0,9 C 73 % 1004,2 hPa 0,0 l/m 4,7 km/h (1 Bft) O-NO 67 -3,4 C -0,4 C
27.10.2012 08:06 0,9 C 73 % 1004,2 hPa 0,0 l/m 4,0 km/h (1 Bft) NO 45 -3,4 C 0,9 C
27.10.2012 08:11 0,9 C 73 % 1004,2 hPa 0,0 l/m 0,0 km/h (0 Bft) NO 45 -3,4 C 0,9 C
27.10.2012 08:16 0,9 C 73 % 1004,4 hPa 0,0 l/m 2,5 km/h (1 Bft) NO 45 -3,4 C 0,9 C
27.10.2012 08:21 0,9 C 73 % 1004,2 hPa 0,0 l/m 5,8 km/h (2 Bft) O-NO 67 -3,4 C -0,9 C
27.10.2012 08:26 0,9 C 73 % 1004,4 hPa 0,0 l/m 4,0 km/h (1 Bft) O-NO 67 -3,4 C 0,9 C
27.10.2012 08:31 0,9 C 74 % 1004,5 hPa 0,0 l/m 5,0 km/h (1 Bft) N 360 -3,2 C -0,6 C
27.10.2012 08:36 0,8 C 74 % 1004,5 hPa 0,0 l/m 2,5 km/h (1 Bft) N-NO 22 -3,3 C 0,8 C
27.10.2012 08:41 0,8 C 74 % 1004,5 hPa 0,0 l/m 3,6 km/h (1 Bft) O-NO 67 -3,3 C 0,8 C
27.10.2012 08:46 0,8 C 74 % 1004,6 hPa 0,0 l/m 5,8 km/h (2 Bft) O-NO 67 -3,3 C -1,0 C
27.10.2012 08:51 0,9 C 74 % 1004,6 hPa 0,0 l/m 5,0 km/h (1 Bft) N-NO 22 -3,2 C -0,6 C
27.10.2012 08:56 0,9 C 74 % 1004,7 hPa 0,0 l/m 4,3 km/h (1 Bft) O-NO 67 -3,2 C 0,9 C
27.10.2012 09:01 1,1 C 73 % 1004,7 hPa 0,0 l/m 3,6 km/h (1 Bft) NO 45 -3,2 C 1,1 C
27.10.2012 09:06 1,2 C 73 % 1005,0 hPa 0,0 l/m 2,5 km/h (1 Bft) N-NO 22 -3,1 C 1,2 C
27.10.2012 09:11 1,3 C 73 % 1004,7 hPa 0,0 l/m 4,3 km/h (1 Bft) O-NO 67 -3,0 C 1,3 C
27.10.2012 09:16 1,3 C 72 % 1004,8 hPa 0,0 l/m 4,0 km/h (1 Bft) NO 45 -3,2 C 1,3 C
27.10.2012 09:21 1,5 C 72 % 1004,9 hPa 0,0 l/m 3,2 km/h (1 Bft) O-NO 67 -3,0 C 1,5 C
27.10.2012 09:26 1,6 C 71 % 1004,8 hPa 0,0 l/m 3,2 km/h (1 Bft) O-NO 67 -3,1 C 1,6 C
27.10.2012 09:31 1,8 C 71 % 1004,8 hPa 0,0 l/m 6,5 km/h (2 Bft) NO 45 -2,9 C -0,1 C
27.10.2012 09:36 1,8 C 70 % 1004,8 hPa 0,0 l/m 3,2 km/h (1 Bft) O-NO 67 -3,1 C 1,8 C
27.10.2012 09:41 1,9 C 69 % 1004,8 hPa 0,0 l/m 0,0 km/h (0 Bft) NO 45 -3,2 C 1,9 C
27.10.2012 09:46 1,9 C 70 % 1004,8 hPa 0,0 l/m 1,4 km/h (1 Bft) N-NO 22 -3,0 C 1,9 C
27.10.2012 09:51 1,9 C 70 % 1005,0 hPa 0,0 l/m 6,1 km/h (2 Bft) N 360 -3,0 C 0,1 C
27.10.2012 09:56 1,9 C 70 % 1005,1 hPa 0,0 l/m 0,0 km/h (0 Bft) N-NO 22 -3,0 C 1,9 C
27.10.2012 10:01 2,1 C 70 % 1004,9 hPa 0,0 l/m 7,2 km/h (2 Bft) O-NO 67 -2,8 C -0,0 C
27.10.2012 10:06 2,1 C 70 % 1005,1 hPa 0,0 l/m 6,5 km/h (2 Bft) N 360 -2,8 C 0,2 C
27.10.2012 10:11 2,2 C 70 % 1005,1 hPa 0,0 l/m 5,4 km/h (1 Bft) N-NO 22 -2,7 C 0,7 C
27.10.2012 10:16 2,3 C 70 % 1005,1 hPa 0,0 l/m 6,5 km/h (2 Bft) N 360 -2,6 C 0,4 C
27.10.2012 10:21 2,3 C 70 % 1005,0 hPa 0,0 l/m 6,8 km/h (2 Bft) O-NO 67 -2,6 C 0,3 C
27.10.2012 10:26 2,4 C 70 % 1005,0 hPa 0,0 l/m 2,2 km/h (1 Bft) NO 45 -2,5 C 2,4 C
27.10.2012 10:31 2,4 C 70 % 1004,9 hPa 0,0 l/m 5,4 km/h (1 Bft) NO 45 -2,5 C 1,0 C
27.10.2012 10:36 2,4 C 69 % 1005,1 hPa 0,0 l/m 4,3 km/h (1 Bft) N-NO 22 -2,7 C 2,4 C
27.10.2012 10:41 2,5 C 70 % 1005,2 hPa 0,0 l/m 5,0 km/h (1 Bft) N-NO 22 -2,4 C 1,2 C
27.10.2012 10:46 2,5 C 69 % 1005,2 hPa 0,0 l/m 4,7 km/h (1 Bft) N-NO 22 -2,6 C 1,4 C
27.10.2012 10:51 2,6 C 69 % 1005,3 hPa 0,0 l/m 0,0 km/h (0 Bft) O-NO 67 -2,5 C 2,6 C
27.10.2012 10:56 2,8 C 70 % 1005,3 hPa 0,0 l/m 4,7 km/h (1 Bft) NO 45 -2,1 C 1,7 C
27.10.2012 11:01 2,9 C 69 % 1005,5 hPa 0,0 l/m 4,7 km/h (1 Bft) NO 45 -2,2 C 1,8 C
27.10.2012 11:06 3,0 C 68 % 1005,4 hPa 0,0 l/m 3,2 km/h (1 Bft) O-NO 67 -2,3 C 3,0 C
27.10.2012 11:11 3,2 C 67 % 1005,5 hPa 0,0 l/m 2,5 km/h (1 Bft) NO 45 -2,3 C 3,2 C
27.10.2012 11:16 3,3 C 67 % 1005,5 hPa 0,0 l/m 3,6 km/h (1 Bft) NO 45 -2,2 C 3,3 C
27.10.2012 11:21 3,3 C 67 % 1005,3 hPa 0,0 l/m 1,4 km/h (1 Bft) N-NO 22 -2,2 C 3,3 C
27.10.2012 11:26 3,4 C 66 % 1005,6 hPa 0,0 l/m 8,3 km/h (2 Bft) N 360 -2,3 C 1,2 C
27.10.2012 11:31 3,4 C 66 % 1005,7 hPa 0,0 l/m 2,5 km/h (1 Bft) N 360 -2,3 C 3,4 C
27.10.2012 11:36 3,5 C 66 % 1005,6 hPa 0,0 l/m 4,0 km/h (1 Bft) NO 45 -2,2 C 3,5 C
27.10.2012 11:41 3,6 C 66 % 1005,8 hPa 0,0 l/m 3,6 km/h (1 Bft) N-NO 22 -2,1 C 3,6 C
27.10.2012 11:46 3,6 C 65 % 1005,6 hPa 0,0 l/m 9,4 km/h (2 Bft) N-NO 22 -2,4 C 1,1 C
27.10.2012 11:51 3,6 C 65 % 1005,5 hPa 0,0 l/m 2,2 km/h (1 Bft) NO 45 -2,4 C 3,6 C
27.10.2012 11:56 3,6 C 66 % 1005,7 hPa 0,0 l/m 4,7 km/h (1 Bft) N 360 -2,1 C 2,6 C
27.10.2012 12:01 3,8 C 65 % 1005,6 hPa 0,0 l/m 7,6 km/h (2 Bft) N 360 -2,2 C 1,8 C
27.10.2012 12:06 3,8 C 66 % 1005,8 hPa 0,0 l/m 4,3 km/h (1 Bft) N-NO 22 -2,0 C 3,8 C
27.10.2012 12:11 3,8 C 66 % 1005,6 hPa 0,0 l/m 6,5 km/h (2 Bft) N 360 -2,0 C 2,2 C
27.10.2012 12:16 3,8 C 66 % 1005,6 hPa 0,0 l/m 3,6 km/h (1 Bft) N-NO 22 -2,0 C 3,8 C
27.10.2012 12:21 3,9 C 66 % 1005,7 hPa 0,0 l/m 4,7 km/h (1 Bft) N-NO 22 -1,9 C 3,0 C
27.10.2012 12:26 3,9 C 64 % 1005,6 hPa 0,0 l/m 5,0 km/h (1 Bft) NO 45 -2,3 C 2,8 C
27.10.2012 12:31 4,1 C 64 % 1005,5 hPa 0,0 l/m 6,1 km/h (2 Bft) O-NO 67 -2,1 C 2,7 C
27.10.2012 12:36 4,1 C 61 % 1005,7 hPa 0,0 l/m 7,6 km/h (2 Bft) N-NO 22 -2,7 C 2,2 C
27.10.2012 12:41 4,1 C 61 % 1005,7 hPa 0,0 l/m 5,8 km/h (2 Bft) N-NO 22 -2,7 C 2,8 C
27.10.2012 12:46 4,2 C 61 % 1005,6 hPa 0,0 l/m 9,0 km/h (2 Bft) N 360 -2,6 C 1,9 C
27.10.2012 12:51 4,3 C 58 % 1005,7 hPa 0,0 l/m 6,1 km/h (2 Bft) NO 45 -3,2 C 2,9 C
27.10.2012 12:56 4,4 C 57 % 1005,5 hPa 0,0 l/m 7,6 km/h (2 Bft) N-NO 22 -3,4 C 2,5 C
27.10.2012 13:01 4,4 C 56 % 1005,5 hPa 0,0 l/m 4,7 km/h (1 Bft) O-NO 67 -3,6 C 3,5 C
27.10.2012 13:06 4,6 C 57 % 1005,3 hPa 0,0 l/m 3,2 km/h (1 Bft) NO 45 -3,2 C 4,6 C
27.10.2012 13:11 4,9 C 57 % 1005,5 hPa 0,0 l/m 3,2 km/h (1 Bft) N-NO 22 -2,9 C 4,9 C
27.10.2012 13:16 5,0 C 55 % 1005,3 hPa 0,0 l/m 7,9 km/h (2 Bft) NO 45 -3,3 C 3,2 C
27.10.2012 13:21 5,1 C 55 % 1005,6 hPa 0,0 l/m 6,1 km/h (2 Bft) N 360 -3,2 C 3,8 C
27.10.2012 13:26 5,3 C 54 % 1005,5 hPa 0,0 l/m 2,2 km/h (1 Bft) O-NO 67 -3,2 C 5,3 C
27.10.2012 13:31 5,4 C 56 % 1005,5 hPa 0,0 l/m 2,5 km/h (1 Bft) NO 45 -2,7 C 5,4 C
27.10.2012 13:36 5,4 C 56 % 1005,4 hPa 0,0 l/m 0,0 km/h (0 Bft) O-NO 67 -2,7 C 5,4 C
27.10.2012 13:41 5,5 C 57 % 1005,7 hPa 0,0 l/m 4,7 km/h (1 Bft) O-NO 67 -2,3 C 4,8 C
27.10.2012 13:46 5,6 C 57 % 1005,7 hPa 0,0 l/m 3,2 km/h (1 Bft) N 360 -2,2 C 5,6 C
27.10.2012 13:51 5,8 C 58 % 1005,6 hPa 0,0 l/m 5,8 km/h (2 Bft) NO 45 -1,8 C 4,7 C
27.10.2012 13:56 6,1 C 58 % 1005,6 hPa 0,0 l/m 5,0 km/h (1 Bft) N 360 -1,5 C 5,3 C
27.10.2012 14:01 5,9 C 58 % 1005,6 hPa 0,0 l/m 8,3 km/h (2 Bft) N-NO 22 -1,7 C 4,1 C
27.10.2012 14:06 6,1 C 59 % 1005,7 hPa 0,0 l/m 5,0 km/h (1 Bft) N-NO 22 -1,3 C 5,3 C
27.10.2012 14:11 6,3 C 60 % 1005,7 hPa 0,0 l/m 5,0 km/h (1 Bft) NO 45 -0,9 C 5,6 C
27.10.2012 14:16 6,3 C 61 % 1005,8 hPa 0,0 l/m 6,1 km/h (2 Bft) N-NO 22 -0,7 C 5,2 C
27.10.2012 14:21 6,4 C 61 % 1005,5 hPa 0,0 l/m 3,2 km/h (1 Bft) NO 45 -0,6 C 6,4 C
27.10.2012 14:26 6,4 C 61 % 1005,5 hPa 0,0 l/m 4,3 km/h (1 Bft) N-NO 22 -0,6 C 6,4 C
27.10.2012 14:31 6,6 C 61 % 1005,8 hPa 0,0 l/m 4,7 km/h (1 Bft) N 360 -0,4 C 6,0 C
27.10.2012 14:36 6,6 C 61 % 1005,6 hPa 0,0 l/m 8,6 km/h (2 Bft) N-NO 22 -0,4 C 4,9 C
27.10.2012 14:41 6,4 C 62 % 1005,7 hPa 0,0 l/m 5,4 km/h (1 Bft) N 360 -0,3 C 5,5 C
27.10.2012 14:46 6,5 C 62 % 1005,7 hPa 0,0 l/m 7,2 km/h (2 Bft) N 360 -0,2 C 5,1 C
27.10.2012 14:51 6,4 C 62 % 1005,9 hPa 0,0 l/m 11,5 km/h (2 Bft) N-NO 22 -0,3 C 4,0 C
27.10.2012 14:56 6,3 C 63 % 1005,9 hPa 0,0 l/m 14,8 km/h (3 Bft) N-NO 22 -0,2 C 3,4 C
27.10.2012 15:01 5,9 C 68 % 1005,9 hPa 0,0 l/m 16,2 km/h (3 Bft) N 360 0,5 C 2,7 C
27.10.2012 15:06 5,4 C 71 % 1005,9 hPa 0,0 l/m 5,8 km/h (2 Bft) N 360 0,6 C 4,2 C
27.10.2012 15:11 5,2 C 71 % 1005,9 hPa 0,0 l/m 3,2 km/h (1 Bft) N-NO 22 0,4 C 5,2 C
27.10.2012 15:16 5,1 C 73 % 1005,9 hPa 0,0 l/m 8,3 km/h (2 Bft) N-NO 22 0,7 C 3,2 C
27.10.2012 15:21 5,1 C 74 % 1005,9 hPa 0,0 l/m 4,0 km/h (1 Bft) N-NO 22 0,9 C 5,1 C
27.10.2012 15:26 5,1 C 75 % 1006,2 hPa 0,0 l/m 4,7 km/h (1 Bft) N 360 1,0 C 4,3 C
27.10.2012 15:31 4,6 C 77 % 1006,2 hPa 0,0 l/m 17,3 km/h (3 Bft) N-NO 22 0,9 C 0,9 C
27.10.2012 15:36 4,1 C 79 % 1006,1 hPa 0,0 l/m 19,1 km/h (3 Bft) N-NO 22 0,8 C 0,0 C
27.10.2012 15:41 3,8 C 81 % 1005,9 hPa 0,5 l/m 4,0 km/h (1 Bft) NO 45 0,8 C 3,8 C
27.10.2012 15:46 3,6 C 82 % 1005,9 hPa 0,0 l/m 5,8 km/h (2 Bft) N-NO 22 0,8 C 2,2 C
27.10.2012 15:51 3,6 C 82 % 1005,8 hPa 0,0 l/m 5,8 km/h (2 Bft) N-NO 22 0,8 C 2,2 C
27.10.2012 15:56 3,6 C 83 % 1005,9 hPa 0,0 l/m 3,6 km/h (1 Bft) N-NO 22 1,0 C 3,6 C
27.10.2012 16:01 3,8 C 84 % 1005,9 hPa 0,0 l/m 8,3 km/h (2 Bft) N-NO 22 1,4 C 1,6 C
27.10.2012 16:06 3,9 C 84 % 1005,9 hPa 0,0 l/m 10,1 km/h (2 Bft) N-NO 22 1,4 C 1,3 C
27.10.2012 16:11 4,0 C 84 % 1005,9 hPa 0,0 l/m 6,5 km/h (2 Bft) N 360 1,5 C 2,4 C
27.10.2012 16:16 4,2 C 84 % 1006,1 hPa 0,0 l/m 7,6 km/h (2 Bft) N 360 1,7 C 2,3 C
27.10.2012 16:21 4,4 C 84 % 1006,2 hPa 0,0 l/m 14,8 km/h (3 Bft) N-NO 22 1,9 C 1,0 C
27.10.2012 16:26 4,5 C 84 % 1006,3 hPa 0,0 l/m 13,3 km/h (3 Bft) N 360 2,0 C 1,4 C
27.10.2012 16:31 4,4 C 83 % 1006,2 hPa 0,0 l/m 9,7 km/h (2 Bft) N-NW 337 1,8 C 2,0 C
27.10.2012 16:36 4,2 C 81 % 1006,2 hPa 0,0 l/m 7,6 km/h (2 Bft) N 360 1,2 C 2,3 C
27.10.2012 16:41 4,1 C 81 % 1006,3 hPa 0,0 l/m 2,9 km/h (1 Bft) N-NO 22 1,1 C 4,1 C
27.10.2012 16:46 3,9 C 82 % 1006,4 hPa 0,0 l/m 7,6 km/h (2 Bft) N-NO 22 1,1 C 2,0 C
27.10.2012 16:51 3,9 C 82 % 1006,5 hPa 0,0 l/m 6,5 km/h (2 Bft) N 360 1,1 C 2,3 C
27.10.2012 16:56 3,8 C 82 % 1006,6 hPa 0,0 l/m 4,7 km/h (1 Bft) NO 45 1,0 C 2,8 C
27.10.2012 17:01 3,8 C 82 % 1006,7 hPa 0,0 l/m 5,8 km/h (2 Bft) N 360 1,0 C 2,4 C
27.10.2012 17:06 3,8 C 82 % 1006,7 hPa 0,0 l/m 5,0 km/h (1 Bft) O-NO 67 1,0 C 2,7 C
27.10.2012 19:16 3,0 C 84 % 1008,3 hPa 0,0 l/m 2,5 km/h (1 Bft) NO 45 0,6 C 3,0 C
27.10.2012 17:06 3,8 C 82 % 1006,7 hPa 0,0 l/m 5,0 km/h (1 Bft) O-NO 67 1,0 C 2,7 C
27.10.2012 19:21 2,9 C 84 % 1008,4 hPa 74,6 l/m 5,0 km/h (1 Bft) N-NO 22 0,5 C 1,7 C
27.10.2012 19:26 2,9 C 84 % 1008,2 hPa 0,0 l/m 5,0 km/h (1 Bft) N-NO 22 0,5 C 1,7 C
27.10.2012 19:31 2,9 C 84 % 1008,5 hPa 0,0 l/m 5,8 km/h (2 Bft) N-NO 22 0,5 C 1,4 C
27.10.2012 19:36 2,9 C 84 % 1008,7 hPa 0,0 l/m 6,1 km/h (2 Bft) N-NO 22 0,5 C 1,3 C
27.10.2012 19:41 2,9 C 84 % 1008,7 hPa 0,0 l/m 6,8 km/h (2 Bft) N-NO 22 0,5 C 1,0 C
27.10.2012 19:46 2,9 C 85 % 1008,7 hPa 0,0 l/m 10,1 km/h (2 Bft) N-NO 22 0,6 C 0,1 C
27.10.2012 19:51 2,8 C 85 % 1008,6 hPa 0,0 l/m 6,5 km/h (2 Bft) N 360 0,5 C 1,0 C
27.10.2012 19:56 2,8 C 85 % 1008,8 hPa 0,0 l/m 9,4 km/h (2 Bft) N-NW 337 0,5 C 0,2 C
27.10.2012 20:01 2,7 C 85 % 1009,0 hPa 0,0 l/m 6,1 km/h (2 Bft) N 360 0,4 C 1,0 C
27.10.2012 20:06 2,6 C 85 % 1008,7 hPa 0,0 l/m 7,6 km/h (2 Bft) N 360 0,3 C 0,4 C
27.10.2012 20:11 2,5 C 85 % 1008,9 hPa 0,0 l/m 6,1 km/h (2 Bft) N-NO 22 0,2 C 0,8 C
27.10.2012 20:16 2,4 C 85 % 1009,1 hPa 0,0 l/m 4,7 km/h (1 Bft) N-NO 22 0,1 C 1,3 C
27.10.2012 20:21 2,3 C 85 % 1009,2 hPa 0,0 l/m 7,9 km/h (2 Bft) N-NO 22 0,0 C -0,0 C
27.10.2012 20:26 2,3 C 85 % 1009,1 hPa 0,0 l/m 6,1 km/h (2 Bft) N 360 0,0 C 0,6 C
27.10.2012 20:31 2,2 C 85 % 1009,1 hPa 0,0 l/m 5,4 km/h (1 Bft) N-NO 22 -0,1 C 0,7 C
27.10.2012 20:36 2,2 C 85 % 1009,1 hPa 0,0 l/m 5,8 km/h (2 Bft) N 360 -0,1 C 0,6 C
27.10.2012 20:41 2,1 C 85 % 1009,1 hPa 0,0 l/m 6,5 km/h (2 Bft) N-NO 22 -0,2 C 0,2 C
27.10.2012 20:46 2,1 C 85 % 1009,2 hPa 0,0 l/m 9,7 km/h (2 Bft) N-NO 22 -0,2 C -0,7 C
27.10.2012 20:51 1,9 C 85 % 1009,3 hPa 0,0 l/m 7,6 km/h (2 Bft) N 360 -0,3 C -0,4 C
27.10.2012 20:56 1,8 C 85 % 1009,1 hPa 0,0 l/m 7,6 km/h (2 Bft) N-NO 22 -0,4 C -0,5 C
27.10.2012 21:01 1,8 C 86 % 1009,2 hPa 0,0 l/m 5,4 km/h (1 Bft) N-NO 22 -0,3 C 0,3 C
27.10.2012 21:06 1,8 C 86 % 1009,4 hPa 0,0 l/m 4,3 km/h (1 Bft) N 360 -0,3 C 1,8 C
27.10.2012 21:11 1,6 C 86 % 1009,4 hPa 0,0 l/m 7,6 km/h (2 Bft) N-NO 22 -0,5 C -0,7 C
27.10.2012 21:16 1,6 C 86 % 1009,4 hPa 0,0 l/m 2,2 km/h (1 Bft) NO 45 -0,5 C 1,6 C
27.10.2012 21:21 1,5 C 86 % 1009,6 hPa 0,0 l/m 6,5 km/h (2 Bft) N 360 -0,6 C -0,5 C
27.10.2012 21:26 1,4 C 86 % 1009,6 hPa 0,0 l/m 4,0 km/h (1 Bft) N 360 -0,7 C 1,4 C
27.10.2012 21:31 1,3 C 86 % 1009,5 hPa 0,0 l/m 3,6 km/h (1 Bft) N 360 -0,8 C 1,3 C
27.10.2012 21:36 1,3 C 86 % 1009,7 hPa 0,0 l/m 3,2 km/h (1 Bft) N-NO 22 -0,8 C 1,3 C
27.10.2012 21:41 1,3 C 86 % 1009,7 hPa 0,0 l/m 4,3 km/h (1 Bft) N-NO 22 -0,8 C 1,3 C
27.10.2012 21:46 1,3 C 86 % 1009,7 hPa 0,0 l/m 5,0 km/h (1 Bft) N 360 -0,8 C -0,1 C
27.10.2012 21:51 1,3 C 86 % 1009,9 hPa 0,0 l/m 3,2 km/h (1 Bft) N 360 -0,8 C 1,3 C
27.10.2012 21:56 1,3 C 86 % 1010,0 hPa 0,0 l/m 4,0 km/h (1 Bft) N-NW 337 -0,8 C 1,3 C
27.10.2012 22:01 1,3 C 86 % 1010,1 hPa 0,0 l/m 5,8 km/h (2 Bft) N 360 -0,8 C -0,5 C
27.10.2012 22:06 1,2 C 86 % 1010,0 hPa 0,0 l/m 4,7 km/h (1 Bft) N 360 -0,9 C -0,1 C
27.10.2012 22:11 1,1 C 86 % 1010,2 hPa 0,0 l/m 2,9 km/h (1 Bft) N 360 -1,0 C 1,1 C
27.10.2012 22:16 1,1 C 86 % 1010,1 hPa 0,0 l/m 2,5 km/h (1 Bft) N-NO 22 -1,0 C 1,1 C
27.10.2012 22:21 1,0 C 86 % 1010,0 hPa 0,0 l/m 2,5 km/h (1 Bft) N-NO 22 -1,1 C 1,0 C
27.10.2012 22:26 0,9 C 86 % 1010,2 hPa 0,0 l/m 0,0 km/h (0 Bft) N-NO 22 -1,2 C 0,9 C
27.10.2012 22:31 0,9 C 86 % 1010,2 hPa 0,0 l/m 7,2 km/h (2 Bft) N 360 -1,2 C -1,4 C
27.10.2012 22:36 0,9 C 87 % 1010,2 hPa 0,0 l/m 1,8 km/h (1 Bft) N-NO 22 -1,0 C 0,9 C
27.10.2012 22:41 0,9 C 87 % 1010,2 hPa 0,0 l/m 1,8 km/h (1 Bft) N-NO 22 -1,0 C 0,9 C
27.10.2012 22:46 0,8 C 86 % 1010,3 hPa 0,0 l/m 0,0 km/h (0 Bft) N-NW 337 -1,3 C 0,8 C
27.10.2012 22:51 0,7 C 86 % 1010,3 hPa 0,0 l/m 2,2 km/h (1 Bft) N 360 -1,4 C 0,7 C
27.10.2012 22:56 0,6 C 86 % 1010,4 hPa 0,0 l/m 0,0 km/h (0 Bft) N 360 -1,5 C 0,6 C
27.10.2012 23:01 0,5 C 86 % 1010,5 hPa 0,0 l/m 2,2 km/h (1 Bft) N 360 -1,6 C 0,5 C
27.10.2012 23:06 0,4 C 86 % 1010,3 hPa 0,0 l/m 0,0 km/h (0 Bft) NW 315 -1,7 C 0,4 C
27.10.2012 23:11 0,4 C 86 % 1010,3 hPa 0,0 l/m 0,0 km/h (0 Bft) NW 315 -1,7 C 0,4 C
27.10.2012 23:16 0,3 C 86 % 1010,5 hPa 0,0 l/m 1,4 km/h (1 Bft) NW 315 -1,8 C 0,3 C
27.10.2012 23:21 0,3 C 86 % 1010,4 hPa 0,0 l/m 4,3 km/h (1 Bft) NW 315 -1,8 C 0,3 C
27.10.2012 23:26 0,2 C 87 % 1010,6 hPa 0,0 l/m 0,0 km/h (0 Bft) NW 315 -1,7 C 0,2 C
27.10.2012 23:31 0,2 C 87 % 1010,3 hPa 0,0 l/m 0,0 km/h (0 Bft) N-NW 337 -1,7 C 0,2 C
27.10.2012 23:36 0,1 C 86 % 1010,3 hPa 0,0 l/m 0,0 km/h (0 Bft) N 360 -2,0 C 0,1 C
27.10.2012 23:41 0,1 C 86 % 1010,5 hPa 0,0 l/m 2,9 km/h (1 Bft) N 360 -2,0 C 0,1 C
27.10.2012 23:46 0,1 C 86 % 1010,4 hPa 0,0 l/m 0,0 km/h (0 Bft) N-NW 337 -2,0 C 0,1 C
27.10.2012 23:51 -0,1 C 87 % 1010,4 hPa 0,0 l/m 0,0 km/h (0 Bft) NW 315 -2,0 C -0,1 C
27.10.2012 23:56 -0,1 C 87 % 1010,4 hPa 0,0 l/m 0,0 km/h (0 Bft) N-NW 337 -2,0 C -0,1 C
_ Min-Zeit 23:51 13:26 06:36 - 00:06 - - 13:01 07:26
Minimum _ -0,1 C 54 % 1003,8 hPa - 0,0 km/h (0 Bft) - - -3,6 C -2,4 C
_ Max-Zeit 14:31 22:36 23:26 19:21 15:36 - - 16:26 14:21
Maximum _ 6,6 C 87 % 1010,6 hPa 74,6 l/m 19,1 km/h
N-NO (3 Bft)
- - 2,0 C 6,4 C
Durchschnitt _ 2,4 C 76 % 1006,5 hPa #75,1 l/m 4,4 km/h (1 Bft) NO - -1,4 C 1,6 C
(c) by David Heller